Location: Laguna de la Cañada del Gallo
(40.3974°N, 5.2096°W)
Time: 18:43:22
(UTC+00:00)

CZ-4C R/B - Visible Passes

Search period start: 12 July 2024 00:00
Search period end: 22 July 2024 00:00
Orbit: 445 x 579 km, 98.0° (Epoch: 11 July)

Date Brightness Start Highest point End Pass type
(mag) Time Alt. Az. Time Alt. Az. Time Alt. Az.
12 Jul 3.6 21:19:51 10° N 21:23:32 61° WNW 21:27:03 10° SSW visible
13 Jul 3.0 21:03:58 10° NNE 21:07:41 80° E 21:11:13 10° S visible
14 Jul 3.3 20:48:13 10° NNE 20:51:47 47° E 20:55:10 10° S visible
14 Jul 6.3 22:24:09 10° NW 22:25:12 11° WNW 22:26:15 10° W visible
15 Jul 4.0 20:32:37 10° NE 20:35:48 28° E 20:38:53 10° SSE visible
15 Jul 5.9 22:07:08 10° NNW 22:09:29 17° WNW 22:11:48 10° WSW visible
16 Jul 5.3 21:50:42 10° NNW 21:53:43 25° WNW 21:56:38 10° SW visible
17 Jul 4.4 21:34:30 10° N 21:37:53 39° WNW 21:41:09 10° SW visible
18 Jul 3.3 21:18:26 10° N 21:22:00 67° WNW 21:25:25 10° SSW visible
19 Jul 2.9 21:02:30 10° NNE 21:06:04 71° ESE 21:09:24 10° S visible
20 Jul 3.4 20:46:41 10° NNE 20:50:04 41° E 20:53:08 11° S visible
20 Jul 6.2 22:22:21 10° NW 22:23:33 11° WNW 22:24:44 10° W visible
21 Jul 4.1 20:31:04 10° NE 20:34:00 25° E 20:36:51 10° SSE visible
21 Jul 5.8 22:05:21 10° NNW 22:07:45 17° WNW 22:10:05 10° WSW visible
